Regional Weather Roundup
Issued by NWS Newport/Morehead, NC

Current Version | Previous Version | Text Only | Print | Product List | Glossary On
Versions: 1 2 3 4 5 6 7 8 9 10 11 12 13 14 15 16 17 18 19 20 21 22 23 24 25 26 27 28 29 30 31 32 33 34 35 36 37 38 39 40 41 42 43 44 45 46 47 48 49 50
000
ASUS42 KMHX 272025
RWRMHX
WEATHER ROUNDUP FOR EASTERN NORTH CAROLINA
NATIONAL WEATHER SERVICE NEWPORT/MOREHEAD CITY NC
400 PM EDT TUE JUN 27 2017

NOTE: "FAIR" INDICATES FEW OR NO CLOUDS BELOW 12,000 FEET
WITH NO SIGNIFICANT WEATHER AND/OR OBSTRUCTIONS TO VISIBILITY

NCZ015>017-031-032-045>047-102-103-272100-
NORTH COAST

CITY           SKY/WX    TMP DP  RH WIND       PRES   REMARKS
EDENTON        MOSUNNY   85  63  47 CALM      30.00F
ELIZABETH CITY MOSUNNY   82  68  62 E9        29.99F
KITTY HAWK     PTCLDY    82  61  48 SW5       29.98F
MANTEO         PTSUNNY   80  63  55 S9        30.00F

$$

NCZ045>047-081-094-103-104-272100-
CENTRAL COAST

CITY           SKY/WX    TMP DP  RH WIND       PRES   REMARKS
FRISCO         NOT AVBL

$$

NCZ095-097-098-100-101-272100-
SOUTHERN COAST

CITY           SKY/WX    TMP DP  RH WIND       PRES   REMARKS
BEAUFORT       CLOUDY    83  64  52 S9        30.01S
CEDAR ISLAND   NOT AVBL
JACKSONVILLE   NOT AVBL
PINEY ISLAND   MOCLDY   N/A N/A N/A S7        30.00F
WILMINGTON     PTSUNNY   85  64  49 SE9       30.01S


$$

NCZ011>013-027>030-043-044-078>080-089-090>093-098-272100-
COASTAL PLAIN

CITY           SKY/WX    TMP DP  RH WIND       PRES   REMARKS
AHOSKIE          N/A     80  56  42 CALM      30.01S
CLINTON        MOSUNNY   84  60  44 NW5       30.03S
ELIZABETHTOWN  NOT AVBL
GOLDSBORO      SUNNY     84  56  38 NW3       30.01S
GREENVILLE     SUNNY     84  57  39 NW3       30.03S
HAVELOCK       PTSUNNY   83  64  52 SE6       30.01
KENANSVILLE    PTSUNNY   82  61  47 N5        30.02F
KINSTON        CLOUDY    84  57  39 NW5       30.02F
NEW BERN       MOSUNNY   86  62  44 W6        30.01F
RICHLANDS      MOSUNNY   86  59  39 NW3       30.01F
ROCKY MOUNT    SUNNY     83  56  39 VRB6      30.02F
WASHINGTON     MOSUNNY  N/A N/A N/A W5        30.01S
WHITEVILLE     CLOUDY    84  62  47 CALM      30.01S

$$

AMZ130-135-150-152-154-156-158-170-250-252-270-ANZ085-086-088-633-658-670-272100-
MARINE OBSERVATIONS

STATION/POSITION TIME  TEMP    WIND        PRES    WAVE   SWELL
                       AIR SEA DIR/SP/G            HT/PER HT/PER
                 (UTC) (F)     (DEG/KT/KT) (MB)    (FT/S) (FT/S)
CHESAPEAKE LIGHT NOT AVBL
64 E VA BEACH    1950   75 77  200/  2/  4 1016.4    1/ 8   2/ 8
DUCK             2000   75 74   60/  7/  7 1015.4
2 E DUCK         NOT AVBL
OREGON INLET     2000   79 72  130/  4/  5 1015.8
13E OREGON INLT  1948      79                N/A     1/ 8   2/ 8
HATTERAS CG      2000   82 78  200/  3/  6 1016.0
DIAMOND BUOY     1950   82 83   CALM  /  2 1016.3    2/ 6   2/ 6
CAPE LOOKOUT     2000   81     200/  3/  5 1016.0
BEAUFORT LAB     2000   81 80  200/  7/ 10 1015.6
30 SE NEW RVR IN 2008   81 82  220/  2/  4 1016.6
30 SE NEW RVR IN 1943      85                N/A     2/ 8
27 SE WRIGHTSVLE 2008   82 82  150/  2/  6 1016.3
5 SE WRIGHTSVLE  2008   81 81  170/  6/ 10 1016.2
225 S CAPE HAT   1950   76 80  260/  6/  8 1016.3    3/ 5   3/ 5
41 SE CHARLESTON 2010   80 81   50/  8/ 12 1016.3

$$



USA.gov is the U.S. government's official web portal to all federal, state and local government web resources and services.